Check out our new BloomSky Weather System.

Active alerts


No alerts


Thunder radar  blitzortung!


Rain radar more information rain snow radar


Visit our other weather sites:

Template documentation
and downloads

And another site



Weather Underground History page Text

Daily Summary for February 3, 2018 Units:  English    Metric   Both
« Previous Day
Next Day »
Daily Weekly Monthly Yearly Custom
  High: Low: Average:
Temperature: TemperatureF °F 45.7 °F 50.2 °F
Dew Point: DewpointF °F 31.3 °F 43.7 °F
Humidity: Humidity % 52 % 80 %
Wind Speed: WindSpeedMPH mph 0.0 mph 1.1 mph
Wind Gust: WindSpeedGustMPH mph - -
Wind:- - ESE
Pressure: PressureIn in 29.88 in -
Precipitation: 0.08 in    
Historical Graphs
 
 
Tabular Data for February 3, 2018
Time Temperature Dew Point Pressure Wind Wind Speed Wind Gust Humidity Rainfall Rate (Hourly)
TemperatureF °F DewpointF °F PressureIn in Calm     Humidity % HourlyPrecipIn in
00:00 48.0 °F 31.6 °F 30.32 in East 4.0 mph 4.0 mph 53 % 0.00 in
00:05 48.0 °F 31.6 °F 30.33 in Calm   4.0 mph 53 % 0.00 in
00:10 48.0 °F 31.6 °F 30.32 in ESE 3.0 mph 4.0 mph 53 % 0.00 in
00:15 48.0 °F 31.6 °F 30.32 in ESE 1.0 mph 4.0 mph 53 % 0.00 in
00:20 48.0 °F 31.6 °F 30.32 in East 1.0 mph 4.0 mph 53 % 0.00 in
00:25 48.0 °F 31.6 °F 30.32 in Calm   4.0 mph 53 % 0.00 in
00:30 48.0 °F 31.6 °F 30.31 in SE 2.0 mph 4.0 mph 53 % 0.00 in
00:35 48.0 °F 31.6 °F 30.31 in Calm   4.0 mph 53 % 0.00 in
00:40 48.0 °F 31.6 °F 30.31 in East 1.0 mph 3.0 mph 53 % 0.00 in
00:45 48.0 °F 31.3 °F 30.31 in Calm   4.0 mph 52 % 0.00 in
00:50 48.0 °F 31.3 °F 30.31 in ESE 2.0 mph 4.0 mph 52 % 0.00 in
00:55 48.0 °F 31.6 °F 30.30 in NW 1.0 mph 4.0 mph 53 % 0.00 in
01:00 48.0 °F 31.6 °F 30.31 in East 2.0 mph 4.0 mph 53 % 0.00 in
01:05 48.0 °F 31.6 °F 30.31 in East 2.0 mph 4.0 mph 53 % 0.00 in
01:10 47.8 °F 31.5 °F 30.31 in ENE 1.0 mph 4.0 mph 53 % 0.00 in
01:15 47.8 °F 32.0 °F 30.31 in ESE 1.0 mph 4.0 mph 54 % 0.00 in
01:20 47.8 °F 32.5 °F 30.31 in Calm   4.0 mph 55 % 0.00 in
01:25 47.7 °F 32.7 °F 30.30 in Calm   4.0 mph 56 % 0.00 in
01:30 47.7 °F 32.7 °F 30.31 in Calm   3.0 mph 56 % 0.00 in
01:35 47.7 °F 32.7 °F 30.30 in ENE 1.0 mph 3.0 mph 56 % 0.00 in
01:40 47.7 °F 32.7 °F 30.30 in Calm   3.0 mph 56 % 0.00 in
01:45 47.7 °F 32.7 °F 30.30 in NNW 1.0 mph 3.0 mph 56 % 0.00 in
01:50 47.7 °F 32.4 °F 30.30 in ESE 2.0 mph 3.0 mph 55 % 0.00 in
01:55 47.7 °F 32.4 °F 30.29 in East 2.0 mph 4.0 mph 55 % 0.00 in
02:00 47.7 °F 32.4 °F 30.29 in East 1.0 mph 4.0 mph 55 % 0.00 in
02:05 47.7 °F 32.4 °F 30.29 in East 1.0 mph 4.0 mph 55 % 0.00 in
02:11 47.7 °F 32.4 °F 30.28 in ENE 1.0 mph 4.0 mph 55 % 0.00 in
02:16 47.7 °F 32.4 °F 30.29 in Calm   2.0 mph 55 % 0.00 in
02:21 47.5 °F 32.5 °F 30.28 in ENE 1.0 mph 2.0 mph 56 % 0.00 in
02:26 47.5 °F 32.2 °F 30.28 in Calm   4.0 mph 55 % 0.00 in
02:31 47.5 °F 32.2 °F 30.28 in ENE 3.0 mph 4.0 mph 55 % 0.00 in
02:36 47.5 °F 32.2 °F 30.28 in East 1.0 mph 4.0 mph 55 % 0.00 in
02:41 47.5 °F 32.2 °F 30.27 in ENE 4.0 mph 4.0 mph 55 % 0.00 in
02:46 47.5 °F 32.2 °F 30.27 in Calm   4.0 mph 55 % 0.00 in
02:51 47.5 °F 32.2 °F 30.27 in Calm   4.0 mph 55 % 0.00 in
02:56 47.5 °F 32.5 °F 30.27 in East 2.0 mph 4.0 mph 56 % 0.00 in
03:01 47.3 °F 32.4 °F 30.27 in NE 3.0 mph 3.0 mph 56 % 0.00 in
03:06 47.3 °F 32.0 °F 30.27 in Calm   4.0 mph 55 % 0.00 in
03:11 47.1 °F 31.8 °F 30.27 in ENE 2.0 mph 4.0 mph 55 % 0.00 in
03:16 47.1 °F 31.8 °F 30.27 in North 1.0 mph 4.0 mph 55 % 0.00 in
03:21 47.1 °F 32.2 °F 30.27 in East 1.0 mph 4.0 mph 56 % 0.00 in
03:26 47.1 °F 32.2 °F 30.27 in ESE 1.0 mph 4.0 mph 56 % 0.00 in
03:31 47.1 °F 32.2 °F 30.27 in East 1.0 mph 3.0 mph 56 % 0.00 in
03:36 47.1 °F 32.2 °F 30.27 in Calm   5.0 mph 56 % 0.00 in
03:41 46.9 °F 32.0 °F 30.27 in NNE 1.0 mph 6.0 mph 56 % 0.00 in
03:46 46.9 °F 32.5 °F 30.27 in Calm   6.0 mph 57 % 0.00 in
03:51 46.9 °F 32.0 °F 30.26 in East 1.0 mph 6.0 mph 56 % 0.00 in
03:56 46.9 °F 32.0 °F 30.26 in ENE 2.0 mph 4.0 mph 56 % 0.00 in
04:01 46.9 °F 32.0 °F 30.26 in ENE 1.0 mph 3.0 mph 56 % 0.00 in
04:06 46.9 °F 32.0 °F 30.26 in East 2.0 mph 3.0 mph 56 % 0.00 in
04:11 46.9 °F 32.5 °F 30.25 in Calm   3.0 mph 57 % 0.00 in
04:16 46.9 °F 32.5 °F 30.25 in Calm   3.0 mph 57 % 0.00 in
04:21 46.9 °F 32.5 °F 30.25 in Calm   4.0 mph 57 % 0.00 in
04:26 46.9 °F 32.9 °F 30.25 in North 1.0 mph 4.0 mph 58 % 0.00 in
04:31 46.9 °F 32.9 °F 30.25 in SE 1.0 mph 4.0 mph 58 % 0.00 in
04:36 46.9 °F 32.5 °F 30.25 in Calm   3.0 mph 57 % 0.00 in
04:41 46.9 °F 32.5 °F 30.25 in Calm   3.0 mph 57 % 0.00 in
04:46 46.9 °F 32.5 °F 30.25 in Calm   5.0 mph 57 % 0.00 in
04:51 46.9 °F 32.5 °F 30.25 in East 1.0 mph 5.0 mph 57 % 0.00 in
04:56 46.9 °F 32.5 °F 30.24 in ESE 3.0 mph 5.0 mph 57 % 0.00 in
05:01 46.9 °F 32.5 °F 30.24 in ENE 1.0 mph 4.0 mph 57 % 0.00 in
05:06 46.9 °F 32.5 °F 30.24 in Calm   4.0 mph 57 % 0.00 in
05:11 46.9 °F 32.9 °F 30.24 in Calm   4.0 mph 58 % 0.00 in
05:16 46.9 °F 32.5 °F 30.23 in SSE 1.0 mph 3.0 mph 57 % 0.00 in
05:21 46.9 °F 32.5 °F 30.23 in ENE 2.0 mph 4.0 mph 57 % 0.00 in
05:26 46.9 °F 32.5 °F 30.22 in ESE 2.0 mph 4.0 mph 57 % 0.00 in
05:31 46.8 °F 32.4 °F 30.23 in Calm   4.0 mph 57 % 0.00 in
05:36 46.8 °F 32.7 °F 30.23 in Calm   4.0 mph 58 % 0.00 in
05:41 46.9 °F 32.9 °F 30.23 in Calm   4.0 mph 58 % 0.00 in
05:46 46.9 °F 32.9 °F 30.23 in ESE 2.0 mph 3.0 mph 58 % 0.00 in
05:51 46.9 °F 32.9 °F 30.23 in Calm   3.0 mph 58 % 0.00 in
05:56 46.9 °F 32.9 °F 30.23 in East 2.0 mph 2.0 mph 58 % 0.00 in
06:01 46.9 °F 32.9 °F 30.23 in Calm   3.0 mph 58 % 0.00 in
06:06 46.9 °F 33.4 °F 30.23 in East 1.0 mph 3.0 mph 59 % 0.00 in
06:11 46.9 °F 33.4 °F 30.23 in Calm   3.0 mph 59 % 0.00 in
06:16 46.9 °F 33.4 °F 30.23 in Calm   3.0 mph 59 % 0.00 in
06:22 46.8 °F 33.3 °F 30.22 in ESE 1.0 mph 3.0 mph 59 % 0.00 in
06:27 46.9 °F 33.8 °F 30.22 in East 1.0 mph 3.0 mph 60 % 0.00 in
06:32 46.9 °F 33.4 °F 30.22 in ENE 4.0 mph 4.0 mph 59 % 0.00 in
06:37 46.8 °F 33.3 °F 30.22 in ENE 2.0 mph 4.0 mph 59 % 0.00 in
06:42 46.8 °F 33.6 °F 30.22 in Calm   4.0 mph 60 % 0.00 in
06:47 46.8 °F 33.6 °F 30.22 in East 2.0 mph 4.0 mph 60 % 0.00 in
06:52 46.8 °F 33.6 °F 30.22 in Calm   3.0 mph 60 % 0.00 in
06:57 46.8 °F 34.0 °F 30.22 in Calm   3.0 mph 61 % 0.00 in
07:02 46.6 °F 34.3 °F 30.22 in Calm   3.0 mph 62 % 0.00 in
07:07 46.6 °F 34.7 °F 30.22 in Calm   3.0 mph 63 % 0.00 in
07:12 46.4 °F 34.5 °F 30.22 in ESE 1.0 mph 3.0 mph 63 % 0.00 in
07:17 46.2 °F 34.7 °F 30.22 in Calm   3.0 mph 64 % 0.00 in
07:22 46.2 °F 34.7 °F 30.22 in Calm   3.0 mph 64 % 0.00 in
07:27 46.2 °F 35.1 °F 30.22 in Calm   3.0 mph 65 % 0.00 in
07:32 46.2 °F 34.7 °F 30.22 in Calm   3.0 mph 64 % 0.00 in
07:37 46.2 °F 35.1 °F 30.22 in Calm   2.0 mph 65 % 0.00 in
07:42 46.2 °F 35.1 °F 30.22 in North 1.0 mph 4.0 mph 65 % 0.00 in
07:47 46.2 °F 35.4 °F 30.20 in East 2.0 mph 4.0 mph 66 % 0.00 in
07:52 46.0 °F 35.8 °F 30.20 in Calm   4.0 mph 67 % 0.00 in
07:57 45.9 °F 36.3 °F 30.20 in ENE 3.0 mph 6.0 mph 69 % 0.00 in
08:02 45.7 °F 36.1 °F 30.20 in ESE 2.0 mph 6.0 mph 69 % 0.00 in
08:07 45.7 °F 36.5 °F 30.20 in ESE 2.0 mph 6.0 mph 70 % 0.00 in
08:12 45.7 °F 36.5 °F 30.19 in ENE 2.0 mph 5.0 mph 70 % 0.00 in
08:17 45.7 °F 36.5 °F 30.19 in East 2.0 mph 5.0 mph 70 % 0.00 in
08:22 45.9 °F 37.0 °F 30.19 in SE 4.0 mph 6.0 mph 71 % 0.00 in
08:27 45.9 °F 36.7 °F 30.19 in Calm   8.0 mph 70 % 0.00 in
08:32 45.9 °F 36.7 °F 30.19 in ESE 2.0 mph 8.0 mph 70 % 0.00 in
08:37 46.0 °F 37.2 °F 30.19 in ESE 1.0 mph 8.0 mph 71 % 0.00 in
08:42 46.0 °F 37.6 °F 30.19 in ENE 1.0 mph 6.0 mph 72 % 0.00 in
08:47 46.2 °F 37.8 °F 30.19 in ENE 1.0 mph 6.0 mph 72 % 0.00 in
08:52 46.2 °F 38.1 °F 30.19 in Calm   6.0 mph 73 % 0.00 in
08:57 46.2 °F 38.5 °F 30.19 in East 1.0 mph 5.0 mph 74 % 0.00 in
09:02 46.2 °F 39.0 °F 30.19 in Calm   5.0 mph 76 % 0.00 in
09:07 46.0 °F 39.6 °F 30.19 in Calm   4.0 mph 78 % 0.00 in
09:12 46.0 °F 39.9 °F 30.20 in Calm   4.0 mph 79 % 0.00 in
09:17 46.0 °F 40.3 °F 30.20 in SE 2.0 mph 4.0 mph 80 % 0.00 in
09:22 46.0 °F 40.3 °F 30.19 in SSE 2.0 mph 4.0 mph 80 % 0.00 in
09:27 46.2 °F 40.5 °F 30.19 in SE 1.0 mph 6.0 mph 80 % 0.00 in
09:32 46.4 °F 40.8 °F 30.19 in Calm   6.0 mph 81 % 0.00 in
09:37 46.6 °F 41.0 °F 30.19 in East 2.0 mph 6.0 mph 81 % 0.00 in
09:42 46.8 °F 41.5 °F 30.19 in SSE 1.0 mph 4.0 mph 82 % 0.00 in
09:47 46.8 °F 41.2 °F 30.19 in East 1.0 mph 4.0 mph 81 % 0.00 in
09:52 46.9 °F 41.7 °F 30.19 in ESE 1.0 mph 4.0 mph 82 % 0.00 in
09:57 47.1 °F 41.5 °F 30.18 in ENE 2.0 mph 5.0 mph 81 % 0.00 in
10:02 47.5 °F 42.3 °F 30.18 in Calm   5.0 mph 82 % 0.00 in
10:07 47.8 °F 42.6 °F 30.18 in NNW 2.0 mph 5.0 mph 82 % 0.00 in
10:12 48.2 °F 43.0 °F 30.17 in Calm   7.0 mph 82 % 0.01 in
10:17 48.6 °F 43.0 °F 30.18 in SE 1.0 mph 8.0 mph 81 % 0.01 in
10:22 48.9 °F 43.3 °F 30.18 in SSE 1.0 mph 8.0 mph 81 % 0.01 in
10:27 49.1 °F 43.2 °F 30.17 in SSW 1.0 mph 9.0 mph 80 % 0.01 in
10:32 49.5 °F 43.5 °F 30.18 in ESE 6.0 mph 9.0 mph 80 % 0.01 in
10:37 49.6 °F 43.7 °F 30.17 in ENE 5.0 mph 9.0 mph 80 % 0.01 in
10:42 50.2 °F 44.6 °F 30.17 in SE 4.0 mph 9.0 mph 81 % 0.01 in
10:47 50.5 °F 45.0 °F 30.17 in ESE 6.0 mph 11.0 mph 81 % 0.01 in
10:52 51.1 °F 45.1 °F 30.16 in South 9.0 mph 11.0 mph 80 % 0.01 in
10:57 51.4 °F 45.5 °F 30.16 in SE 7.0 mph 12.0 mph 80 % 0.01 in
11:02 51.6 °F 45.7 °F 30.15 in SE 9.0 mph 13.0 mph 80 % 0.01 in
11:07 52.0 °F 46.0 °F 30.15 in ESE 7.0 mph 13.0 mph 80 % 0.00 in
11:12 52.3 °F 46.0 °F 30.15 in ESE 6.0 mph 13.0 mph 79 % 0.00 in
11:17 52.3 °F 46.4 °F 30.14 in SE 4.0 mph 12.0 mph 80 % 0.00 in
11:22 52.3 °F 46.8 °F 30.14 in East 6.0 mph 10.0 mph 81 % 0.00 in
11:27 52.3 °F 46.9 °F 30.14 in SE 3.0 mph 10.0 mph 82 % 0.00 in
11:32 52.2 °F 47.1 °F 30.14 in East 5.0 mph 13.0 mph 83 % 0.00 in
11:37 52.0 °F 47.3 °F 30.13 in SSE 2.0 mph 13.0 mph 84 % 0.00 in
11:42 51.6 °F 46.9 °F 30.12 in ESE 3.0 mph 13.0 mph 84 % 0.00 in
11:47 51.4 °F 47.1 °F 30.12 in ESE 5.0 mph 10.0 mph 85 % 0.00 in
11:52 51.3 °F 47.5 °F 30.12 in ESE 3.0 mph 10.0 mph 87 % 0.00 in
11:57 51.1 °F 47.3 °F 30.12 in ESE 2.0 mph 10.0 mph 87 % 0.00 in
12:02 50.9 °F 47.5 °F 30.12 in South 4.0 mph 7.0 mph 88 % 0.00 in
12:07 50.7 °F 47.7 °F 30.12 in Calm   7.0 mph 89 % 0.00 in
12:12 50.9 °F 48.0 °F 30.11 in ESE 2.0 mph 7.0 mph 90 % 0.00 in
12:17 51.1 °F 48.2 °F 30.10 in Calm   5.0 mph 90 % 0.00 in
12:22 51.3 °F 48.4 °F 30.10 in ESE 1.0 mph 3.0 mph 90 % 0.00 in
12:27 51.3 °F 48.4 °F 30.09 in ESE 2.0 mph 3.0 mph 90 % 0.01 in
12:32 51.3 °F 48.4 °F 30.09 in East 1.0 mph 4.0 mph 90 % 0.01 in
12:37 51.3 °F 48.4 °F 30.09 in East 2.0 mph 4.0 mph 90 % 0.01 in
12:42 51.3 °F 48.7 °F 30.08 in Calm   4.0 mph 91 % 0.01 in
12:47 51.1 °F 48.6 °F 30.08 in SE 1.0 mph 3.0 mph 91 % 0.01 in
12:52 51.1 °F 48.6 °F 30.08 in Calm   3.0 mph 91 % 0.01 in
12:57 51.1 °F 48.9 °F 30.07 in Calm   3.0 mph 92 % 0.01 in
13:02 51.1 °F 48.9 °F 30.07 in Calm   3.0 mph 92 % 0.01 in
13:07 51.1 °F 48.9 °F 30.06 in Calm   2.0 mph 92 % 0.02 in
13:12 51.3 °F 49.3 °F 30.06 in Calm   2.0 mph 93 % 0.02 in
13:17 51.3 °F 49.1 °F 30.05 in Calm   2.0 mph 92 % 0.02 in
13:22 51.3 °F 49.3 °F 30.05 in Calm   2.0 mph 93 % 0.02 in
13:27 51.3 °F 49.3 °F 30.04 in ENE 1.0 mph 2.0 mph 93 % 0.01 in
13:32 51.4 °F 49.5 °F 30.04 in SE 1.0 mph 2.0 mph 93 % 0.01 in
13:37 51.4 °F 49.5 °F 30.03 in ESE 2.0 mph 3.0 mph 93 % 0.01 in
13:42 51.6 °F 50.0 °F 30.03 in East 1.0 mph 3.0 mph 94 % 0.01 in
13:47 51.6 °F 49.6 °F 30.02 in ENE 2.0 mph 3.0 mph 93 % 0.01 in
13:52 51.6 °F 50.0 °F 30.02 in Calm   3.0 mph 94 % 0.01 in
13:57 51.6 °F 50.0 °F 30.01 in Calm   4.0 mph 94 % 0.01 in
14:03 52.0 °F 50.4 °F 30.01 in ESE 1.0 mph 4.0 mph 94 % 0.01 in
14:08 52.0 °F 50.4 °F 30.01 in SSE 1.0 mph 4.0 mph 94 % 0.00 in
14:13 52.0 °F 50.4 °F 30.01 in SE 3.0 mph 5.0 mph 94 % 0.00 in
14:17 52.0 °F 50.4 °F 30.00 in ESE 1.0 mph 5.0 mph 94 % 0.00 in
14:23 52.0 °F 50.4 °F 30.00 in NE 2.0 mph 5.0 mph 94 % 0.00 in
14:28 52.0 °F 50.4 °F 29.99 in Calm   5.0 mph 94 % 0.00 in
14:33 52.0 °F 50.4 °F 29.99 in ESE 2.0 mph 5.0 mph 94 % 0.00 in
14:38 52.0 °F 50.4 °F 29.99 in SSE 1.0 mph 5.0 mph 94 % 0.00 in
14:43 52.2 °F 50.5 °F 29.99 in ENE 2.0 mph 5.0 mph 94 % 0.01 in
14:48 52.2 °F 50.7 °F 29.99 in Calm   4.0 mph 95 % 0.01 in
14:53 52.2 °F 50.7 °F 29.98 in ESE 1.0 mph 4.0 mph 95 % 0.01 in
14:58 52.2 °F 50.7 °F 29.98 in SE 1.0 mph 3.0 mph 95 % 0.01 in
15:03 52.3 °F 50.9 °F 29.97 in SE 1.0 mph 4.0 mph 95 % 0.01 in
15:08 52.3 °F 50.9 °F 29.97 in SSE 1.0 mph 4.0 mph 95 % 0.01 in
15:13 52.3 °F 50.9 °F 29.97 in Calm   4.0 mph 95 % 0.01 in
15:18 52.3 °F 50.9 °F 29.96 in East 1.0 mph 3.0 mph 95 % 0.01 in
15:23 52.5 °F 51.1 °F 29.96 in East 1.0 mph 3.0 mph 95 % 0.01 in
15:28 52.5 °F 51.1 °F 29.96 in ESE 1.0 mph 2.0 mph 95 % 0.01 in
15:33 52.5 °F 51.1 °F 29.96 in SSE 1.0 mph 2.0 mph 95 % 0.02 in
15:38 52.5 °F 51.1 °F 29.96 in SE 2.0 mph 2.0 mph 95 % 0.03 in
15:43 52.5 °F 51.1 °F 29.96 in ESE 1.0 mph 2.0 mph 95 % 0.02 in
15:48 52.5 °F 51.1 °F 29.96 in Calm   2.0 mph 95 % 0.02 in
15:53 52.5 °F 51.1 °F 29.96 in SE 1.0 mph 2.0 mph 95 % 0.02 in
15:58 52.5 °F 51.1 °F 29.96 in Calm   2.0 mph 95 % 0.02 in
16:03 52.7 °F 51.3 °F 29.96 in East 1.0 mph 1.0 mph 95 % 0.02 in
16:08 52.7 °F 51.6 °F 29.96 in Calm   3.0 mph 96 % 0.02 in
16:13 52.7 °F 51.6 °F 29.95 in East 1.0 mph 3.0 mph 96 % 0.02 in
16:18 52.7 °F 51.6 °F 29.95 in Calm   3.0 mph 96 % 0.02 in
16:23 52.7 °F 51.6 °F 29.95 in Calm   3.0 mph 96 % 0.02 in
16:28 52.7 °F 51.6 °F 29.96 in Calm   3.0 mph 96 % 0.01 in
16:33 52.7 °F 51.6 °F 29.96 in Calm   2.0 mph 96 % 0.02 in
16:38 52.9 °F 51.8 °F 29.96 in Calm   2.0 mph 96 % 0.01 in
16:43 52.9 °F 51.8 °F 29.95 in Calm   1.0 mph 96 % 0.01 in
16:48 52.9 °F 51.8 °F 29.95 in Calm   2.0 mph 96 % 0.01 in
16:53 52.9 °F 51.8 °F 29.95 in ESE 1.0 mph 2.0 mph 96 % 0.01 in
16:58 52.9 °F 51.8 °F 29.94 in Calm   2.0 mph 96 % 0.01 in
17:03 52.9 °F 51.8 °F 29.94 in Calm   2.0 mph 96 % 0.01 in
17:08 52.9 °F 51.8 °F 29.94 in Calm   2.0 mph 96 % 0.01 in
17:13 52.9 °F 51.8 °F 29.94 in Calm   2.0 mph 96 % 0.01 in
17:18 53.1 °F 52.0 °F 29.94 in East 1.0 mph 2.0 mph 96 % 0.01 in
17:23 53.1 °F 52.0 °F 29.93 in East 1.0 mph 3.0 mph 96 % 0.01 in
17:28 53.1 °F 52.0 °F 29.93 in Calm   3.0 mph 96 % 0.01 in
17:33 53.1 °F 52.0 °F 29.92 in Calm   3.0 mph 96 % 0.00 in
17:38 53.1 °F 52.2 °F 29.92 in East 1.0 mph 3.0 mph 97 % 0.00 in
17:43 53.2 °F 52.3 °F 29.92 in East 2.0 mph 2.0 mph 97 % 0.00 in
17:48 53.2 °F 52.3 °F 29.92 in Calm   3.0 mph 97 % 0.00 in
17:53 53.2 °F 52.3 °F 29.92 in Calm   3.0 mph 97 % 0.00 in
17:58 53.2 °F 52.3 °F 29.92 in Calm   3.0 mph 97 % 0.00 in
18:03 53.2 °F 52.3 °F 29.91 in East 1.0 mph 1.0 mph 97 % 0.00 in
18:08 53.2 °F 52.3 °F 29.91 in SE 1.0 mph 2.0 mph 97 % 0.00 in
18:13 53.2 °F 52.3 °F 29.91 in Calm   2.0 mph 97 % 0.00 in
18:18 53.2 °F 52.3 °F 29.91 in Calm   3.0 mph 97 % 0.00 in
18:23 53.2 °F 52.3 °F 29.91 in Calm   3.0 mph 97 % 0.00 in
18:28 53.2 °F 52.3 °F 29.92 in Calm   3.0 mph 97 % 0.00 in
18:33 53.2 °F 52.3 °F 29.91 in ESE 1.0 mph 2.0 mph 97 % 0.00 in
18:38 53.2 °F 52.3 °F 29.91 in Calm   2.0 mph 97 % 0.00 in
18:43 53.4 °F 52.5 °F 29.91 in SE 1.0 mph 2.0 mph 97 % 0.00 in
18:48 53.4 °F 52.5 °F 29.91 in Calm   2.0 mph 97 % 0.00 in
18:53 53.4 °F 52.5 °F 29.91 in Calm   2.0 mph 97 % 0.00 in
18:58 53.4 °F 52.5 °F 29.92 in Calm   2.0 mph 97 % 0.00 in
19:03 53.4 °F 52.5 °F 29.92 in Calm   2.0 mph 97 % 0.00 in
19:08 53.6 °F 52.7 °F 29.91 in Calm   2.0 mph 97 % 0.00 in
19:13 53.6 °F 52.7 °F 29.91 in Calm   2.0 mph 97 % 0.00 in
19:18 53.4 °F 52.5 °F 29.91 in Calm   2.0 mph 97 % 0.00 in
19:23 53.4 °F 52.5 °F 29.91 in East 1.0 mph 2.0 mph 97 % 0.00 in
19:28 53.4 °F 52.5 °F 29.91 in Calm   2.0 mph 97 % 0.00 in
19:33 53.6 °F 52.7 °F 29.90 in ESE 1.0 mph 3.0 mph 97 % 0.00 in
19:38 53.6 °F 52.7 °F 29.91 in Calm   3.0 mph 97 % 0.00 in
19:43 53.6 °F 52.7 °F 29.90 in ESE 2.0 mph 4.0 mph 97 % 0.00 in
19:48 53.6 °F 52.7 °F 29.90 in SE 2.0 mph 4.0 mph 97 % 0.00 in
19:53 53.6 °F 52.7 °F 29.90 in Calm   4.0 mph 97 % 0.01 in
19:58 53.8 °F 52.9 °F 29.90 in ESE 1.0 mph 3.0 mph 97 % 0.01 in
20:03 53.8 °F 52.9 °F 29.89 in SSE 1.0 mph 3.0 mph 97 % 0.01 in
20:08 53.8 °F 53.2 °F 29.89 in SE 1.0 mph 3.0 mph 98 % 0.01 in
20:13 53.8 °F 53.2 °F 29.89 in East 1.0 mph 6.0 mph 98 % 0.01 in
20:18 53.8 °F 53.2 °F 29.89 in ESE 2.0 mph 6.0 mph 98 % 0.01 in
20:23 53.8 °F 53.2 °F 29.90 in East 1.0 mph 6.0 mph 98 % 0.01 in
20:28 53.8 °F 53.2 °F 29.90 in ESE 1.0 mph 6.0 mph 98 % 0.01 in
20:33 53.8 °F 53.2 °F 29.90 in SE 1.0 mph 5.0 mph 98 % 0.01 in
20:38 53.8 °F 53.2 °F 29.90 in Calm   4.0 mph 98 % 0.01 in
20:43 53.8 °F 53.2 °F 29.90 in Calm   3.0 mph 98 % 0.01 in
20:48 54.0 °F 53.4 °F 29.90 in Calm   3.0 mph 98 % 0.00 in
20:53 54.0 °F 53.4 °F 29.90 in Calm   2.0 mph 98 % 0.00 in
20:58 54.0 °F 53.4 °F 29.90 in Calm   1.0 mph 98 % 0.00 in
21:03 54.0 °F 53.4 °F 29.91 in Calm   1.0 mph 98 % 0.00 in
21:08 54.0 °F 53.4 °F 29.91 in Calm   1.0 mph 98 % 0.00 in
21:13 54.0 °F 53.4 °F 29.90 in SE 1.0 mph 1.0 mph 98 % 0.00 in
21:18 54.0 °F 53.4 °F 29.89 in SE 3.0 mph 3.0 mph 98 % 0.00 in
21:23 54.0 °F 53.4 °F 29.88 in ESE 3.0 mph 4.0 mph 98 % 0.00 in
21:28 54.1 °F 53.6 °F 29.88 in SE 2.0 mph 5.0 mph 98 % 0.00 in
21:33 54.1 °F 53.6 °F 29.88 in SE 1.0 mph 5.0 mph 98 % 0.00 in
21:38 54.1 °F 53.6 °F 29.89 in NNW 1.0 mph 5.0 mph 98 % 0.00 in
21:43 54.1 °F 53.6 °F 29.89 in Calm   5.0 mph 98 % 0.00 in
21:48 54.1 °F 53.6 °F 29.89 in Calm   5.0 mph 98 % 0.00 in
21:53 54.1 °F 53.6 °F 29.89 in Calm   1.0 mph 98 % 0.00 in
21:58 54.1 °F 53.6 °F 29.90 in Calm   1.0 mph 98 % 0.00 in
22:03 54.3 °F 53.8 °F 29.89 in Calm   1.0 mph 98 % 0.00 in
22:08 54.3 °F 53.8 °F 29.89 in Calm   1.0 mph 98 % 0.00 in
22:13 54.3 °F 53.8 °F 29.89 in SE 1.0 mph 1.0 mph 98 % 0.00 in
22:18 54.5 °F 54.0 °F 29.88 in SE 1.0 mph 2.0 mph 98 % 0.00 in
22:24 54.7 °F 54.1 °F 29.88 in ESE 1.0 mph 3.0 mph 98 % 0.00 in
22:29 54.7 °F 54.1 °F 29.88 in SE 1.0 mph 3.0 mph 98 % 0.00 in
22:34 54.7 °F 54.1 °F 29.88 in SSE 2.0 mph 3.0 mph 98 % 0.00 in
22:38 54.7 °F 54.1 °F 29.88 in SW 2.0 mph 3.0 mph 98 % 0.00 in
22:43 54.7 °F 54.1 °F 29.88 in Calm   3.0 mph 98 % 0.00 in
22:49 54.7 °F 54.1 °F 29.89 in Calm   3.0 mph 98 % 0.00 in
22:54 54.9 °F 54.3 °F 29.89 in Calm   3.0 mph 98 % 0.00 in
22:59 54.9 °F 54.3 °F 29.89 in Calm   2.0 mph 98 % 0.00 in
23:04 54.9 °F 54.3 °F 29.89 in Calm   2.0 mph 98 % 0.00 in
23:09 54.9 °F 54.3 °F 29.89 in Calm   1.0 mph 98 % 0.00 in
23:14 54.9 °F 54.3 °F 29.89 in Calm     98 % 0.00 in
23:19 54.9 °F 54.3 °F 29.89 in Calm     98 % 0.00 in
23:24 54.9 °F 54.5 °F 29.90 in Calm     99 % 0.00 in
23:29 54.9 °F 54.5 °F 29.90 in Calm   1.0 mph 99 % 0.00 in
23:34 55.0 °F 54.7 °F 29.89 in Calm   1.0 mph 99 % 0.00 in
23:39 55.0 °F 54.7 °F 29.89 in Calm   1.0 mph 99 % 0.00 in
23:44 54.9 °F 54.5 °F 29.89 in Calm   1.0 mph 99 % 0.00 in
23:49 54.9 °F 54.5 °F 29.89 in Calm   1.0 mph 99 % 0.00 in
23:54 55.0 °F 54.7 °F 29.88 in Calm   1.0 mph 99 % 0.00 in
23:59 55.0 °F 54.7 °F 29.90 in WNW 2.0 mph 2.0 mph 99 % 0.00 in
Spring, Texas: Villages of Bridgestone
Compliments of Weather Underground - 2.75 mb

Script developed by  Jim McMurry - jmcmurry@mwt.net Adapted for the template by  Wim van der Kuil - Leuven-Template.eu

You find our weather info also at:

UK Metoffice

WeatherCloud

Weather Underground

Mid-South Weather Network

AWEKAS

Citizen Weather Observer Program (CWOP)

HAMweather, WeatherForYou, PWS Weather

Equipment we use:

Weather-station
Davis Vantage Vue

Weather-program
Meteohub

Weather-server
Debian 7.9 x86 (Guest)

Provider
DreamHost

Davis Vantage Vue

Meteohub

Debian 7.9 x86 (Guest)

DreamHost